THOR ABLESTAR DEB, 354

Orbit data source: Space-Track

THOR ABLESTAR DEB, 354 is space debris in LEO originally from a launch on Thu, 29 Jun 1961 UTC launched from the Air Force Eastern Test Range (AFETR). Debris objects in space refer to the collection of defunct objects orbiting the Earth. Examples of debris include non-operational satellites, rocket bodies, and fragments generated from explosions, collisions, or faulty payload assembly.

Loading next visibility...
Identifier
354, 1961-015DU
Orbit
LEO
Last TLE update
18 hours ago
Origin
Manufacturer
Unknown
Mission
Spacecraft
Bus & Motor
Unknown
Mass
Unknown
Launch date (UTC)
1961-06-29 (64 years ago)
Launch vehicle
Unknown
Launch site
Air Force Eastern Test Range (AFETR)
Object type
Payload
Rocket body
Debris
Shape & HBR
Unknown
Radar Cross Section
Small (<0.1 m²)

Expand to show TLE details & history

TLE from 18 hours ago
0 THOR ABLESTAR DEB
1   354U 61015DU  25115.02177587  .00000500  00000-0  82495-3 0  9992
2   354  67.0671 321.5839 0170852 243.5953 282.5113 13.49246986421849
Epoch: 2025-04-25T00:31Z
Definitive object data (Epoch: 2025-04-25T00:31:21.435Z)
Latitude
14.52213°
Longitude
-85.79957°
Altitude
1,050.868 km
Speed
7.34 km/s
True Right ascension
09h 01m 17s
True Declination
14° 26' 32"
Sunlit
Object was in daylight at TLE epoch
Visualization TLE readout
Latitude
-32.3037°
Longitude
-65.79848°
Altitude
973.243 km
Speed
7.42 km/s
Apparent Right ascension
11h 52m 00s
Apparent Declination
-38° 33' 44"
Sunlit
Object is in full shadow
Visualization observer readout
Local Sidereal Time
01:49:13
Azimuth
96.052° ESE
Elevation
-67.365°
Doppler factor
1
Orbital elements
Apogee altitude
1,200.737 km
Perigee altitude
946.114 km
Semi-major axis
7,451.563 km
Eccentricity
0.0170852
Inclination
67.0671°
RAAN
321.5839°
Arg. of periapsis
243.5953°
True anomaly
280.59145°
Mean anomaly
282.5113°
Eccentric anomaly
281.55222°
Mean motion
3.37421 °/min
BSTAR
0.00082495
Orbital period
106.69 mins
Loading maneuver chart data...
Loading SW <> Apogee altitude chart data...

THOR ABLESTAR DEB Visibility forecast

Observer location: undefined°, undefined°

Span
Click to sort rows by Start time (UTC) header in descending order
Start Az.
Max El. time (UTC)
Max El. Az.
Max El.
End time (UTC)
End Az.
11 mins2025-04-25 23:22:36.051Z348.658° N2025-04-25 23:28:36.051Z54.82° ENE29.822°2025-04-25 23:33:36.051Z109.312° ESE
12 mins2025-04-26 01:12:36.051Z318.099° NNW2025-04-26 01:18:36.051Z240.503° WSW36.969°2025-04-26 01:24:36.051Z177.395° S
4 mins2025-04-26 13:12:36.051Z113.425° SE2025-04-26 13:14:36.051Z96.592° ESE12.658°2025-04-26 13:16:36.051Z80.104° E
12 mins2025-04-26 14:57:36.051Z197.897° SSW2025-04-26 15:02:36.051Z146.049° SSE43.971°2025-04-26 15:09:36.051Z32.121° NE
11 mins2025-04-26 16:48:36.051Z267.149° W2025-04-26 16:53:36.051Z316.057° NNW23.939°2025-04-26 16:59:36.051Z10.163° NNE
|